Location: La Coruña
(43.3623°N, 8.4115°W)
Time: 20:05:54
(UTC+01:00)

STARLINK-1099 - Pass Details

Date: 18 January 2020
Orbit: 532 x 534 km, 53.0° (Epoch: 18 February)

Event Time Altitude Azimuth Distance (km) Brightness Sun altitude
Rises 18:58:13 0° 237° (WSW) 2,652 9.3 -6.1°
Reaches altitude 10° 19:00:26 10° 239° (WSW) 1,764 7.9 -6.4°
Maximum altitude 19:04:26 77° 326° (NW) 544 3.6 -7.1°
Drops below altitude 10° 19:08:26 10° 53° (NE) 1,764 5.6 -7.8°
Enters shadow 19:08:36 - 53° (NE) 1,831 5.7 -7.8°
